User: anonymous   Login
Location: Columbia
(38.9520°N, 92.3340°W)
Time: 11:08:56
(UTC-06:00)
Language:

Cosmos 2100 Rocket - Orbit

View from above orbital plane
View from above orbital plane
View from above satellite
View from above satellite

Ground track
Ground track

The orbit data is extracted from the following two-line orbital elements,

1 20805U 90083B   14331.18785946  .00000097  00000-0  84039-4 0  8662
2 20805 082.9385 033.5808 0032051 119.2166 293.3709 13.75738343215113
Epoch (UTC): 27 November 2014 04:30:31
Eccentricity: 0.0032051
inclination: 82.9385°
perigee height: 955 km
apogee height: 1002 km
right ascension of ascending node: 33.5808°
argument of perigee: 119.2166°
revolutions per day: 13.75738343
mean anomaly at epoch: 293.3709°
orbit number at epoch: 21511

The dashed part of the orbit path shows where the satellite is in the earth's shadow,  

DLR